Weather History for Melilla, Spain

Change the Weather History Date:

Sunday, November 18, 2012

  Actual Average Record
Temperature  
Mean Temperature 64 °F -  
Max Temperature 69 °F 66 °F 77 °F (1998)
Min Temperature 58 °F 55 °F 48 °F (2008)
Degree Days  
Heating Degree Days 2    
Growing Degree Days 14 (Base 50)    
Moisture  
Dew Point 56 °F    
Average Humidity 72    
Maximum Humidity 82    
Minimum Humidity 57    
Precipitation  
Precipitation 0.03 in 0.06 in - ()
Sea Level Pressure  
Sea Level Pressure 29.76 in    
Wind  
Wind Speed 3 mph ()    
Max Wind Speed 23 mph    
Max Gust Speed -    
Visibility 6.7 miles    
Events Rain    
Averages and records for this station are not official NWS values.
T = Trace of Precipitation, MM = Missing Value Source: Averaged Metar Reports

Daily Weather History Graph

Daily Weather History Graph

Search for Another Location

Airport:

Trip Planner

Search our weather history database for the weather conditions in past years. The results will help you decide how hot, cold, wet, or windy it might be!

Date:

Astronomy

Nov. 18, 2012 Rise Set
Actual Time 7:50 AM CET 6:03 PM CET
Civil Twilight 7:22 AM CET 6:30 PM CET
Nautical Twilight 6:52 AM CET 7:01 PM CET
Astronomical Twilight 6:21 AM CET 7:32 PM CET
Moon 12:09 PM CET (11/18) 11:04 PM CET (11/18)
Length of Visible Light 11h 08m
Length of Day
10h 13m
Waxing Crescent, 27% of the Moon is Illuminated
Nov 18
Waxing Crescent
Nov 20
First Quarter
Nov 28
Full
Dec 6
Last Quarter
Dec 13
New

Hourly Weather History & Observations

Time (CET) Temp. Dew Point Humidity Pressure Visibility Wind Dir Wind Speed Gust Speed Precip Events Conditions
6:00 AM 59.0 °F 53.6 °F 82% 29.68 in - East 1.2 mph - N/A   Clear
6:30 AM 60.8 °F 51.8 °F 72% 29.68 in - WNW 1.2 mph - N/A   Clear
7:00 AM 60 °F 53 °F 71% 29.73 in 9 mi Calm Calm - -   Mostly Cloudy
7:00 AM 60.8 °F 53.6 °F 77% 29.68 in - Calm Calm - N/A   Clear
7:30 AM 60.8 °F 51.8 °F 72% 29.71 in - Variable 1.2 mph - N/A   Clear
8:00 AM 60.8 °F 53.6 °F 77% 29.71 in - Calm Calm - N/A   Clear
8:30 AM 60.8 °F 53.6 °F 77% 29.74 in 6.2 mi SW 3.5 mph - N/A Rain Rain
9:00 AM 60.8 °F 53.6 °F 77% 29.74 in - Variable 2.3 mph - N/A   Clear
9:30 AM 60.8 °F 55.4 °F 82% 29.74 in 6.2 mi Calm Calm - N/A   Partly Cloudy
10:00 AM 60.8 °F 55.4 °F 82% 29.77 in 6.2 mi Calm Calm - N/A   Partly Cloudy
10:30 AM 62.6 °F 57.2 °F 82% 29.77 in 6.2 mi Variable 1.2 mph - N/A   Partly Cloudy
11:00 AM 64.4 °F 57.2 °F 77% 29.77 in 6.2 mi Calm Calm - N/A   Partly Cloudy
11:30 AM 64.4 °F 55.4 °F 73% 29.77 in 6.2 mi Variable 1.2 mph - N/A   Partly Cloudy
12:00 PM 68.0 °F 57.2 °F 68% 29.77 in - SE 5.8 mph - N/A   Clear
12:30 PM 66.2 °F 57.2 °F 73% 29.74 in - SE 6.9 mph - N/A   Clear
1:00 PM 69 °F 57 °F 57% 29.78 in 31 mi SE 4.6 mph - -   Partly Cloudy
1:00 PM 68.0 °F 57.2 °F 68% 29.74 in - SE 5.8 mph - N/A   Clear
1:30 PM 68.0 °F 57.2 °F 68% 29.74 in - SE 6.9 mph - N/A   Clear
2:00 PM 68.0 °F 55.4 °F 64% 29.74 in 6.2 mi ESE 8.1 mph - N/A   Partly Cloudy
2:30 PM 68.0 °F 55.4 °F 64% 29.74 in 6.2 mi East 4.6 mph - N/A   Partly Cloudy
3:00 PM 68.0 °F 59.0 °F 73% 29.74 in 6.2 mi NE 4.6 mph - N/A   Partly Cloudy
3:30 PM 68.0 °F 57.2 °F 68% 29.74 in 6.2 mi Variable 2.3 mph - N/A   Partly Cloudy
4:00 PM 68.0 °F 57.2 °F 68% 29.74 in 6.2 mi NNW 4.6 mph - N/A   Partly Cloudy
4:30 PM 68.0 °F 53.6 °F 60% 29.77 in 6.2 mi Variable 2.3 mph - N/A   Partly Cloudy
5:00 PM 66.2 °F 55.4 °F 68% 29.77 in - West 5.8 mph - N/A   Clear
5:30 PM 66.2 °F 57.2 °F 73% 29.77 in 6.2 mi WSW 6.9 mph - N/A Rain Rain
6:00 PM 64.4 °F 57.2 °F 77% 29.80 in 6.2 mi NNW 5.8 mph - N/A   Partly Cloudy
6:30 PM 64.4 °F 55.4 °F 73% 29.83 in 6.2 mi West 1.2 mph - N/A   Partly Cloudy
7:00 PM 64 °F 55 °F 66% 29.86 in 12 mi West 23.0 mph - -   Partly Cloudy
7:00 PM 64.4 °F 55.4 °F 73% 29.83 in 6.2 mi Variable 2.3 mph - N/A   Partly Cloudy
7:30 PM 64.4 °F 57.2 °F 77% 29.86 in 6.2 mi WSW 2.3 mph - N/A   Scattered Clouds